,,Stat6,,Stat2,,Stat8,,Stat9,,Stat10,,Wind1,,Wind1,
time,status,PA1M_AVG,status,PR1M_SUM,status,RH1M_AVG,status,SR1M_AVG,status,TA1M_AVG,status,W1dAve1m,status,W1sAve1m,
2005-09-19, 00:00:00,VALID,920.973,VALID,0,VALID,95.1033,VALID,-0.0169808,VALID,18.9754,VALID,357,VALID,0,
2005-09-19, 00:01:00,VALID,920.986,VALID,0,VALID,95.5293,VALID,0,VALID,18.9786,VALID,357,VALID,0,
2005-09-19, 00:02:00,VALID,920.994,VALID,0,VALID,95.6056,VALID,0,VALID,18.9754,VALID,357,VALID,0,
2005-09-19, 00:03:00,VALID,920.983,VALID,0,VALID,95.7048,VALID,0,VALID,18.9786,VALID,357,VALID,0.0846354,
2005-09-19, 00:04:00,VALID,920.991,VALID,0,VALID,96.3139,VALID,0,VALID,19.0273,VALID,357,VALID,0.310268,
2005-09-19, 00:05:00,VALID,920.964,VALID,0,VALID,96.2999,VALID,-0.0169808,VALID,19.0596,VALID,357,VALID,0.283156,
2005-09-19, 00:06:00,VALID,920.945,VALID,0,VALID,96.2299,VALID,0,VALID,19.0529,VALID,357,VALID,0.428943,
2005-09-19, 00:07:00,VALID,920.919,VALID,0,VALID,96.2923,VALID,0,VALID,19.0531,VALID,357,VALID,0.207209,
2005-09-19, 00:08:00,VALID,920.912,VALID,0,VALID,96.4245,VALID,0,VALID,19.0563,VALID,357,VALID,0,
2005-09-19, 00:09:00,VALID,920.886,VALID,0,VALID,96.6178,VALID,-0.0169808,VALID,19.0563,VALID,357,VALID,0.0012718,
2005-09-19, 00:10:00,VALID,920.903,VALID,0,VALID,96.6102,VALID,-0.0169808,VALID,19.0653,VALID,357,VALID,0,
2005-09-19, 00:11:00,VALID,920.892,VALID,0,VALID,96.3673,VALID,0,VALID,19.0725,VALID,357,VALID,0,
2005-09-19, 00:12:00,VALID,920.874,VALID,0,VALID,96.4741,VALID,0,VALID,19.0626,VALID,357,VALID,0,
2005-09-19, 00:13:00,VALID,920.848,VALID,0,VALID,96.7221,VALID,-0.0169808,VALID,19.0822,VALID,357,VALID,0,
2005-09-19, 00:14:00,VALID,920.846,VALID,0,VALID,96.4448,VALID,0,VALID,19.0919,VALID,357,VALID,0,
2005-09-19, 00:15:00,VALID,920.842,VALID,0,VALID,96.3813,VALID,0,VALID,19.0886,VALID,357,VALID,0,
2005-09-19, 00:16:00,VALID,920.83,VALID,0,VALID,96.5657,VALID,-0.0169808,VALID,19.0849,VALID,357,VALID,0,
2005-09-19, 00:17:00,VALID,920.821,VALID,0,VALID,96.4588,VALID,-0.0169808,VALID,19.0978,VALID,357,VALID,0,
2005-09-19, 00:18:00,VALID,920.794,VALID,0,VALID,96.1931,VALID,0,VALID,19.0787,VALID,357,VALID,0,
2005-09-19, 00:19:00,VALID,920.775,VALID,0,VALID,96.4995,VALID,0,VALID,19.0916,VALID,357,VALID,0,
2005-09-19, 00:20:00,VALID,920.771,VALID,0,VALID,96.6305,VALID,0,VALID,19.1202,VALID,357,VALID,0,
2005-09-19, 00:21:00,VALID,920.728,VALID,0,VALID,96.2299,VALID,0,VALID,19.143,VALID,357,VALID,0,
2005-09-19, 00:22:00,VALID,920.685,VALID,0,VALID,96.235,VALID,0,VALID,19.1465,VALID,357,VALID,0,
2005-09-19, 00:23:00,VALID,920.67,VALID,0,VALID,96.3775,VALID,-0.0169808,VALID,19.1468,VALID,357,VALID,0,
2005-09-19, 00:24:00,VALID,920.674,VALID,0,VALID,96.3342,VALID,-0.0169808,VALID,19.1435,VALID,357,VALID,0,
2005-09-19, 00:25:00,VALID,920.702,VALID,0,VALID,95.3881,VALID,0,VALID,19.1048,VALID,357,VALID,0.0517805,
2005-09-19, 00:26:00,VALID,920.686,VALID,0,VALID,95.1694,VALID,-0.0509425,VALID,19.0628,VALID,357,VALID,0.000726744,
2005-09-19, 00:27:00,VALID,920.684,VALID,0,VALID,95.3182,VALID,-0.0339617,VALID,19.0141,VALID,357,VALID,0.0306784,
2005-09-19, 00:28:00,VALID,920.674,VALID,0,VALID,95.8116,VALID,0,VALID,18.9657,VALID,357,VALID,0,
2005-09-19, 00:29:00,VALID,920.654,VALID,0,VALID,96.0786,VALID,0,VALID,18.9205,VALID,357,VALID,0,
2005-09-19, 00:30:00,VALID,920.635,VALID,0,VALID,96.4283,VALID,-0.0169808,VALID,18.8882,VALID,357,VALID,0,
2005-09-19, 00:31:00,VALID,920.593,VALID,0,VALID,96.8454,VALID,-0.0169808,VALID,18.8688,VALID,357,VALID,0,
2005-09-19, 00:32:00,VALID,920.553,VALID,0,VALID,96.8505,VALID,0,VALID,18.8626,VALID,357,VALID,0,
2005-09-19, 00:33:00,VALID,920.528,VALID,0,VALID,97.1112,VALID,0,VALID,18.8395,VALID,357,VALID,0,
2005-09-19, 00:34:00,VALID,920.513,VALID,0,VALID,97.0972,VALID,-0.0169808,VALID,18.8269,VALID,357,VALID,0,
2005-09-19, 00:35:00,VALID,920.487,VALID,0,VALID,97.3769,VALID,-0.0169808,VALID,18.8206,VALID,357,VALID,0,
2005-09-19, 00:36:00,VALID,920.469,VALID,0,VALID,97.4698,VALID,0,VALID,18.7883,VALID,357,VALID,0,
2005-09-19, 00:37:00,VALID,920.444,VALID,0,VALID,97.761,VALID,-0.0169808,VALID,18.7528,VALID,357,VALID,0.188388,
2005-09-19, 00:38:00,VALID,920.435,VALID,0,VALID,97.8665,VALID,-0.0339617,VALID,18.73,VALID,357,VALID,0.236458,
2005-09-19, 00:39:00,VALID,920.449,VALID,0,VALID,97.8996,VALID,-0.0169808,VALID,18.6915,VALID,357,VALID,0.00545058,
2005-09-19, 00:40:00,VALID,920.44,VALID,0,VALID,97.8805,VALID,-0.0509425,VALID,18.6855,VALID,357,VALID,0,
2005-09-19, 00:41:00,VALID,920.432,VALID,0,VALID,97.8665,VALID,-0.0679233,VALID,18.6564,VALID,357,VALID,0,
2005-09-19, 00:42:00,VALID,920.443,VALID,0,VALID,97.8551,VALID,-0.0339617,VALID,18.6435,VALID,357,VALID,0.0770089,
2005-09-19, 00:43:00,VALID,920.433,VALID,0,VALID,97.8512,VALID,-0.0339617,VALID,18.6237,VALID,357,VALID,0,
2005-09-19, 00:44:00,VALID,920.422,VALID,0,VALID,97.9708,VALID,0,VALID,18.6172,VALID,357,VALID,0.111662,
2005-09-19, 00:45:00,VALID,920.405,VALID,0,VALID,97.8385,VALID,-0.0169808,VALID,18.5912,VALID,357,VALID,0.290737,
2005-09-19, 00:46:00,VALID,920.393,VALID,0,VALID,97.6669,VALID,0,VALID,18.5393,VALID,357,VALID,0.407493,
2005-09-19, 00:47:00,VALID,920.401,VALID,0,VALID,97.3579,VALID,0,VALID,18.4881,VALID,2,VALID,0.576736,
2005-09-19, 00:48:00,VALID,920.385,VALID,0,VALID,97.0692,VALID,-0.0169808,VALID,18.4394,VALID,17,VALID,0.533668,
2005-09-19, 00:49:00,VALID,920.389,VALID,0,VALID,96.6051,VALID,0,VALID,18.3426,VALID,17,VALID,0.591442,
2005-09-19, 00:50:00,VALID,920.341,VALID,0,VALID,97.9937,VALID,0.0169808,VALID,18.3624,VALID,17,VALID,0.628997,
2005-09-19, 00:51:00,VALID,920.342,VALID,0,VALID,98.6841,VALID,0,VALID,18.4069,VALID,17,VALID,0.665153,
2005-09-19, 00:52:00,VALID,920.322,VALID,0,VALID,98.2327,VALID,-0.0169808,VALID,18.4553,VALID,17,VALID,0.704241,
2005-09-19, 00:53:00,VALID,920.307,VALID,0,VALID,98.0585,VALID,-0.0169808,VALID,18.4659,VALID,16,VALID,0.546503,
2005-09-19, 00:54:00,VALID,920.324,VALID,0,VALID,98.4553,VALID,0,VALID,18.5206,VALID,9,VALID,0.652071,
2005-09-19, 00:55:00,VALID,920.354,VALID,0,VALID,97.9568,VALID,0,VALID,18.5397,VALID,9,VALID,0.531059,
2005-09-19, 00:56:00,VALID,920.355,VALID,0,VALID,97.9492,VALID,-0.0169808,VALID,18.546,VALID,9,VALID,0,
2005-09-19, 00:57:00,VALID,920.35,VALID,0,VALID,97.9085,VALID,0,VALID,18.5815,VALID,9,VALID,0.224964,
2005-09-19, 00:58:00,VALID,920.353,VALID,0,VALID,97.3629,VALID,0,VALID,18.5817,VALID,9,VALID,0.373047,
2005-09-19, 00:59:00,VALID,920.329,VALID,0,VALID,97.1391,VALID,0,VALID,18.5621,VALID,9,VALID,0.397321,
2005-09-19, 01:00:00,VALID,920.289,VALID,0,VALID,97.2396,VALID,0.0169808,VALID,18.5981,VALID,9,VALID,0.638579,
2005-09-19, 01:01:00,VALID,920.275,VALID,0,VALID,96.8696,VALID,0,VALID,18.578,VALID,9,VALID,0.386265,
2005-09-19, 01:02:00,VALID,920.252,VALID,0,VALID,96.8416,VALID,0.0169808,VALID,18.5656,VALID,6,VALID,0.09375,
2005-09-19, 01:03:00,VALID,920.232,VALID,0,VALID,97.4558,VALID,0.0169808,VALID,18.623,VALID,270,VALID,0.324751,
2005-09-19, 01:04:00,VALID,920.23,VALID,0,VALID,97.1455,VALID,-0.0169808,VALID,18.7494,VALID,233,VALID,0.208333,
2005-09-19, 01:05:00,VALID,920.201,VALID,0,VALID,96.689,VALID,0.0509425,VALID,18.81,VALID,233,VALID,0.0247093,
2005-09-19, 01:06:00,VALID,920.172,VALID,0,VALID,96.202,VALID,0,VALID,18.8532,VALID,233,VALID,0,
2005-09-19, 01:07:00,VALID,920.153,VALID,0,VALID,95.7938,VALID,0,VALID,18.846,VALID,233,VALID,0.00111607,
2005-09-19, 01:08:00,VALID,920.129,VALID,0,VALID,95.9756,VALID,0.0169808,VALID,18.8686,VALID,233,VALID,0,
2005-09-19, 01:09:00,VALID,920.17,VALID,0,VALID,95.9998,VALID,0.0169808,VALID,18.9235,VALID,233,VALID,0,
2005-09-19, 01:10:00,VALID,920.195,VALID,0,VALID,94.8325,VALID,0,VALID,18.947,VALID,233,VALID,0.100419,
2005-09-19, 01:11:00,VALID,920.214,VALID,0,VALID,94.9749,VALID,0,VALID,18.9788,VALID,233,VALID,0,
2005-09-19, 01:12:00,VALID,920.211,VALID,0,VALID,94.9761,VALID,0,VALID,19.001,VALID,233,VALID,0.0012429,
2005-09-19, 01:13:00,VALID,920.193,VALID,0,VALID,94.7816,VALID,0,VALID,19.0141,VALID,233,VALID,0,
2005-09-19, 01:14:00,VALID,920.197,VALID,0,VALID,94.774,VALID,0,VALID,19.0141,VALID,233,VALID,0.00117188,
2005-09-19, 01:15:00,VALID,920.195,VALID,0,VALID,94.6621,VALID,0,VALID,19.0111,VALID,233,VALID,0.0205793,
2005-09-19, 01:16:00,VALID,920.196,VALID,0,VALID,94.3365,VALID,-0.0169808,VALID,18.9761,VALID,233,VALID,0.251243,
2005-09-19, 01:17:00,VALID,920.206,VALID,0,VALID,94.025,VALID,0,VALID,18.8691,VALID,233,VALID,0.238531,
2005-09-19, 01:18:00,VALID,920.181,VALID,0,VALID,94.8909,VALID,0.0169808,VALID,18.801,VALID,233,VALID,0.153587,
2005-09-19, 01:19:00,VALID,920.158,VALID,0,VALID,95.7213,VALID,0.0339617,VALID,18.8077,VALID,233,VALID,0.175426,
2005-09-19, 01:20:00,VALID,920.126,VALID,0,VALID,95.9146,VALID,0.0169808,VALID,18.8015,VALID,233,VALID,0,
2005-09-19, 01:21:00,VALID,920.092,VALID,0,VALID,95.7137,VALID,0,VALID,18.775,VALID,233,VALID,0,
2005-09-19, 01:22:00,VALID,920.087,VALID,0,VALID,95.4479,VALID,0,VALID,18.7498,VALID,234,VALID,0.341518,
2005-09-19, 01:23:00,VALID,920.084,VALID,0,VALID,94.966,VALID,0,VALID,18.6721,VALID,235,VALID,0.402902,
2005-09-19, 01:24:00,VALID,920.089,VALID,0,VALID,95.7467,VALID,0,VALID,18.6175,VALID,292,VALID,0.417225,
2005-09-19, 01:25:00,VALID,920.1,VALID,0,VALID,96.895,VALID,0,VALID,18.6364,VALID,334,VALID,0.237038,
2005-09-19, 01:26:00,VALID,920.126,VALID,0,VALID,97.0425,VALID,0,VALID,18.6783,VALID,334,VALID,0.253815,
2005-09-19, 01:27:00,VALID,920.101,VALID,0,VALID,96.9675,VALID,0,VALID,18.7076,VALID,334,VALID,0.279647,
2005-09-19, 01:28:00,VALID,920.087,VALID,0,VALID,97.0336,VALID,0,VALID,18.7335,VALID,334,VALID,0.410866,
2005-09-19, 01:29:00,VALID,920.046,VALID,0,VALID,97.0565,VALID,0.0169808,VALID,18.7586,VALID,334,VALID,0.391369,
2005-09-19, 01:30:00,VALID,920.042,VALID,0,VALID,96.8403,VALID,0.0169808,VALID,18.8077,VALID,337,VALID,0.428977,
2005-09-19, 01:31:00,VALID,920.05,VALID,0,VALID,96.7399,VALID,0,VALID,18.7916,VALID,358,VALID,0.72061,
2005-09-19, 01:32:00,VALID,920.055,VALID,0,VALID,96.937,VALID,0.0169808,VALID,18.7879,VALID,358,VALID,0.755996,
2005-09-19, 01:33:00,VALID,920.068,VALID,0,VALID,97.9835,VALID,0,VALID,18.8465,VALID,358,VALID,0.554869,
2005-09-19, 01:34:00,VALID,920.054,VALID,0,VALID,98.0267,VALID,0,VALID,18.9046,VALID,358,VALID,0.359747,
2005-09-19, 01:35:00,VALID,920.057,VALID,0,VALID,97.9148,VALID,0,VALID,18.9336,VALID,358,VALID,0.391959,
2005-09-19, 01:36:00,VALID,920.008,VALID,0,VALID,97.8169,VALID,0,VALID,18.9433,VALID,358,VALID,0.416016,
2005-09-19, 01:37:00,VALID,919.973,VALID,0,VALID,97.6961,VALID,0,VALID,18.96,VALID,358,VALID,0.434411,
2005-09-19, 01:38:00,VALID,919.957,VALID,0,VALID,97.7559,VALID,0,VALID,18.9729,VALID,358,VALID,0.473586,
2005-09-19, 01:39:00,VALID,919.963,VALID,0,VALID,97.7241,VALID,0,VALID,18.9987,VALID,358,VALID,0.548399,
2005-09-19, 01:40:00,VALID,919.976,VALID,0,VALID,97.8843,VALID,-0.0169808,VALID,19.0273,VALID,358,VALID,0.561928,
2005-09-19, 01:41:00,VALID,919.971,VALID,0,VALID,97.8703,VALID,0,VALID,19.0725,VALID,358,VALID,0.417783,
2005-09-19, 01:42:00,VALID,919.947,VALID,0,VALID,97.7292,VALID,0.0339617,VALID,19.0852,VALID,358,VALID,0.306463,
2005-09-19, 01:43:00,VALID,919.913,VALID,0,VALID,97.5397,VALID,0.0169808,VALID,19.0886,VALID,358,VALID,0.0785061,
2005-09-19, 01:44:00,VALID,919.912,VALID,0,VALID,97.6376,VALID,0.0169808,VALID,19.0919,VALID,358,VALID,0.00106534,
2005-09-19, 01:45:00,VALID,919.901,VALID,0,VALID,97.5944,VALID,0,VALID,19.0757,VALID,358,VALID,0,
2005-09-19, 01:46:00,VALID,919.895,VALID,0,VALID,97.6452,VALID,-0.0169808,VALID,19.0822,VALID,358,VALID,0,
2005-09-19, 01:47:00,VALID,919.892,VALID,0,VALID,97.1786,VALID,0,VALID,19.0787,VALID,358,VALID,0,
2005-09-19, 01:48:00,VALID,919.906,VALID,0,VALID,97.0857,VALID,0,VALID,19.0787,VALID,358,VALID,0.154721,
2005-09-19, 01:49:00,VALID,919.893,VALID,0,VALID,96.9217,VALID,0,VALID,19.0633,VALID,358,VALID,0.217507,
2005-09-19, 01:50:00,VALID,919.868,VALID,0,VALID,96.9548,VALID,0,VALID,19.0144,VALID,358,VALID,0.369913,
2005-09-19, 01:51:00,VALID,919.866,VALID,0,VALID,97.3172,VALID,0,VALID,18.9722,VALID,358,VALID,0.665153,
2005-09-19, 01:52:00,VALID,919.842,VALID,0,VALID,97.7978,VALID,0.0169808,VALID,18.9364,VALID,358,VALID,0.639898,
2005-09-19, 01:53:00,VALID,919.827,VALID,0,VALID,98.0801,VALID,0,VALID,18.9173,VALID,355,VALID,0.581659,
2005-09-19, 01:54:00,VALID,919.812,VALID,0,VALID,98.2683,VALID,0,VALID,18.921,VALID,354,VALID,0.460175,
2005-09-19, 01:55:00,VALID,919.775,VALID,0,VALID,98.4489,VALID,0,VALID,18.9205,VALID,353,VALID,0.467416,
2005-09-19, 01:56:00,VALID,919.755,VALID,0,VALID,98.5621,VALID,0,VALID,18.9366,VALID,350,VALID,0.503997,
2005-09-19, 01:57:00,VALID,919.731,VALID,0,VALID,98.4069,VALID,0,VALID,18.9364,VALID,350,VALID,0.449123,
2005-09-19, 01:58:00,VALID,919.715,VALID,0,VALID,98.4082,VALID,0.0169808,VALID,18.9297,VALID,350,VALID,0.391533,
2005-09-19, 01:59:00,VALID,919.696,VALID,0,VALID,98.4794,VALID,0.0169808,VALID,18.9269,VALID,350,VALID,0.416853,
2005-09-19, 02:00:00,VALID,919.679,VALID,0,VALID,98.6689,VALID,0,VALID,18.9269,VALID,350,VALID,0.376563,
2005-09-19, 02:01:00,VALID,919.671,VALID,0,VALID,98.7134,VALID,0.0169808,VALID,18.9334,VALID,350,VALID,0.360465,
2005-09-19, 02:02:00,VALID,919.651,VALID,0,VALID,98.693,VALID,0.0169808,VALID,18.9431,VALID,354,VALID,0.579297,
2005-09-19, 02:03:00,VALID,919.635,VALID,0,VALID,98.6307,VALID,0.0169808,VALID,18.9498,VALID,356,VALID,0.414864,
2005-09-19, 02:04:00,VALID,919.614,VALID,0,VALID,98.6167,VALID,0.0169808,VALID,18.953,VALID,356,VALID,0.481831,
2005-09-19, 02:05:00,VALID,919.594,VALID,0,VALID,98.5036,VALID,0.0339617,VALID,18.9359,VALID,356,VALID,0.307165,
2005-09-19, 02:06:00,VALID,919.569,VALID,0,VALID,98.4642,VALID,0.0339617,VALID,18.9235,VALID,11,VALID,0.637957,
2005-09-19, 02:07:00,VALID,919.556,VALID,0,VALID,98.384,VALID,0,VALID,18.8976,VALID,14,VALID,0.497093,
2005-09-19, 02:08:00,VALID,919.562,VALID,0,VALID,98.4171,VALID,0.0169808,VALID,18.8686,VALID,14,VALID,0.527734,
2005-09-19, 02:09:00,VALID,919.581,VALID,0,VALID,98.384,VALID,0.0169808,VALID,18.8465,VALID,5,VALID,0.413707,
2005-09-19, 02:10:00,VALID,919.594,VALID,0,VALID,98.4489,VALID,0.0169808,VALID,18.8174,VALID,360,VALID,0.582541,
2005-09-19, 02:11:00,VALID,919.59,VALID,0,VALID,98.8901,VALID,0.0509425,VALID,18.8335,VALID,360,VALID,0.737537,
2005-09-19, 02:12:00,VALID,919.583,VALID,0,VALID,98.9575,VALID,0.0509425,VALID,18.8395,VALID,360,VALID,0.766352,
2005-09-19, 02:13:00,VALID,919.58,VALID,0,VALID,98.8202,VALID,0.0169808,VALID,18.8199,VALID,360,VALID,0.673363,
2005-09-19, 02:14:00,VALID,919.592,VALID,0,VALID,98.7414,VALID,0.0169808,VALID,18.8075,VALID,360,VALID,0.335392,
2005-09-19, 02:15:00,VALID,919.591,VALID,0,VALID,98.796,VALID,0,VALID,18.7881,VALID,360,VALID,0.376243,
2005-09-19, 02:16:00,VALID,919.605,VALID,0,VALID,98.8698,VALID,0,VALID,18.7784,VALID,360,VALID,0.255394,
2005-09-19, 02:17:00,VALID,919.592,VALID,0,VALID,98.8736,VALID,0.0679233,VALID,18.759,VALID,360,VALID,0.00247713,
2005-09-19, 02:18:00,VALID,919.59,VALID,0,VALID,98.9283,VALID,0.0849042,VALID,18.7491,VALID,360,VALID,0,
2005-09-19, 02:19:00,VALID,919.584,VALID,0,VALID,98.9105,VALID,0.0509425,VALID,18.7231,VALID,360,VALID,0,
2005-09-19, 02:20:00,VALID,919.569,VALID,0,VALID,98.6829,VALID,0.0169808,VALID,18.7009,VALID,360,VALID,0,
2005-09-19, 02:21:00,VALID,919.544,VALID,0,VALID,98.8024,VALID,0.0679233,VALID,18.6753,VALID,360,VALID,0.0526042,
2005-09-19, 02:22:00,VALID,919.515,VALID,0,VALID,99.0453,VALID,0.0169808,VALID,18.6684,VALID,360,VALID,0.273056,
2005-09-19, 02:23:00,VALID,919.49,VALID,0,VALID,98.9601,VALID,0,VALID,18.6431,VALID,360,VALID,0.416667,
2005-09-19, 02:24:00,VALID,919.494,VALID,0,VALID,98.4553,VALID,0.0509425,VALID,18.5653,VALID,360,VALID,0.480923,
2005-09-19, 02:25:00,VALID,919.47,VALID,0,VALID,98.6562,VALID,0.0169808,VALID,18.4874,VALID,360,VALID,0.361793,
2005-09-19, 02:26:00,VALID,919.464,VALID,0,VALID,98.8418,VALID,0.0169808,VALID,18.456,VALID,1,VALID,0.357329,
2005-09-19, 02:27:00,VALID,919.441,VALID,0,VALID,99.0224,VALID,0,VALID,18.4108,VALID,1,VALID,0.174419,
2005-09-19, 02:28:00,VALID,919.423,VALID,0,VALID,99.2894,VALID,0,VALID,18.3778,VALID,1,VALID,0.351926,
2005-09-19, 02:29:00,VALID,919.392,VALID,0,VALID,99.9018,VALID,0,VALID,18.4173,VALID,1,VALID,0.318004,
2005-09-19, 02:30:00,VALID,919.368,VALID,0,VALID,99.9512,VALID,0,VALID,18.43,VALID,29,VALID,0.579578,
2005-09-19, 02:31:00,VALID,919.362,VALID,0,VALID,99.9713,VALID,0.0169808,VALID,18.4205,VALID,31,VALID,0.490189,
2005-09-19, 02:32:00,VALID,919.352,VALID,0,VALID,99.9837,VALID,0,VALID,18.4364,VALID,29,VALID,0.381904,
2005-09-19, 02:33:00,VALID,919.346,VALID,0,VALID,99.6518,VALID,0,VALID,18.3751,VALID,20,VALID,0.396076,
2005-09-19, 02:34:00,VALID,919.346,VALID,0,VALID,99.6824,VALID,0.0339617,VALID,18.3624,VALID,31,VALID,0.540587,
2005-09-19, 02:35:00,VALID,919.354,VALID,0,VALID,99.9738,VALID,0,VALID,18.3783,VALID,33,VALID,0.450335,
2005-09-19, 02:36:00,VALID,919.336,VALID,0,VALID,99.8436,VALID,0,VALID,18.3523,VALID,33,VALID,0.325321,
2005-09-19, 02:37:00,VALID,919.344,VALID,0,VALID,99.955,VALID,0.0339617,VALID,18.3421,VALID,33,VALID,0.0930233,
2005-09-19, 02:38:00,VALID,919.339,VALID,0,VALID,99.983,VALID,0.0509425,VALID,18.3426,VALID,33,VALID,0.185595,
2005-09-19, 02:39:00,VALID,919.344,VALID,0,VALID,99.9046,VALID,0.0339617,VALID,18.346,VALID,33,VALID,0.00837054,
2005-09-19, 02:40:00,VALID,919.313,VALID,0,VALID,99.6773,VALID,0.0169808,VALID,18.3068,VALID,33,VALID,0.23331,
2005-09-19, 02:41:00,VALID,919.321,VALID,0,VALID,99.5018,VALID,0.0169808,VALID,18.2748,VALID,33,VALID,0.291295,
2005-09-19, 02:42:00,VALID,919.306,VALID,0,VALID,99.1292,VALID,0.0169808,VALID,18.2072,VALID,33,VALID,0.24566,
2005-09-19, 02:43:00,VALID,919.297,VALID,0,VALID,99.3339,VALID,0,VALID,18.1978,VALID,24,VALID,0.565278,
2005-09-19, 02:44:00,VALID,919.296,VALID,0,VALID,99.8418,VALID,0.0169808,VALID,18.2365,VALID,10,VALID,0.776228,
2005-09-19, 02:45:00,VALID,919.314,VALID,0,VALID,100,VALID,0,VALID,18.3301,VALID,18,VALID,0.509448,
2005-09-19, 02:46:00,VALID,919.339,VALID,0,VALID,100,VALID,-0.0679233,VALID,18.3271,VALID,18,VALID,0.286523,
2005-09-19, 02:47:00,VALID,919.358,VALID,0,VALID,99.8614,VALID,-0.101885,VALID,18.2928,VALID,18,VALID,0.377418,
2005-09-19, 02:48:00,VALID,919.351,VALID,0,VALID,99.7701,VALID,-0.0849042,VALID,18.2639,VALID,18,VALID,0.426639,
2005-09-19, 02:49:00,VALID,919.325,VALID,0,VALID,99.8014,VALID,-0.0849042,VALID,18.2247,VALID,18,VALID,0.644271,
2005-09-19, 02:50:00,VALID,919.31,VALID,0,VALID,100,VALID,-0.101885,VALID,18.2702,VALID,9,VALID,0.723586,
2005-09-19, 02:51:00,VALID,919.326,VALID,0,VALID,100,VALID,-0.101885,VALID,18.2865,VALID,6,VALID,0.74907,
2005-09-19, 02:52:00,VALID,919.329,VALID,0,VALID,100,VALID,-0.118866,VALID,18.3119,VALID,12,VALID,0.751488,
2005-09-19, 02:53:00,VALID,919.335,VALID,0,VALID,100,VALID,-0.0849042,VALID,18.3214,VALID,17,VALID,0.751042,
2005-09-19, 02:54:00,VALID,919.353,VALID,0,VALID,100,VALID,-0.101885,VALID,18.325,VALID,14,VALID,0.672049,
2005-09-19, 02:55:00,VALID,919.369,VALID,0,VALID,100,VALID,-0.0849042,VALID,18.3188,VALID,8,VALID,0.466264,
2005-09-19, 02:56:00,VALID,919.37,VALID,0,VALID,100,VALID,-0.0679233,VALID,18.2925,VALID,7,VALID,0.581032,
2005-09-19, 02:57:00,VALID,919.344,VALID,0,VALID,100,VALID,-0.101885,VALID,18.3216,VALID,7,VALID,0.564808,
2005-09-19, 02:58:00,VALID,919.338,VALID,0,VALID,100,VALID,-0.101885,VALID,18.3091,VALID,8,VALID,0.635231,
2005-09-19, 02:59:00,VALID,919.349,VALID,0,VALID,100,VALID,-0.0849042,VALID,18.3546,VALID,8,VALID,0.544779,
2005-09-19, 03:00:00,VALID,919.361,VALID,0,VALID,100,VALID,-0.101885,VALID,18.3836,VALID,8,VALID,0.346094,
2005-09-19, 03:01:00,VALID,919.366,VALID,0,VALID,100,VALID,-0.0339617,VALID,18.3629,VALID,6,VALID,0.479353,
2005-09-19, 03:02:00,VALID,919.361,VALID,0,VALID,100,VALID,-0.0169808,VALID,18.3207,VALID,6,VALID,0.696057,
2005-09-19, 03:03:00,VALID,919.359,VALID,0,VALID,100,VALID,-0.0169808,VALID,18.3366,VALID,6,VALID,0.590216,
2005-09-19, 03:04:00,VALID,919.371,VALID,0,VALID,100,VALID,-0.0679233,VALID,18.3077,VALID,6,VALID,0.417696,
2005-09-19, 03:05:00,VALID,919.351,VALID,0,VALID,100,VALID,-0.0509425,VALID,18.331,VALID,6,VALID,0.353981,
2005-09-19, 03:06:00,VALID,919.336,VALID,0,VALID,99.999,VALID,-0.0169808,VALID,18.2817,VALID,6,VALID,0.360647,
2005-09-19, 03:07:00,VALID,919.337,VALID,0,VALID,99.9222,VALID,-0.0169808,VALID,18.2596,VALID,6,VALID,0.414971,
2005-09-19, 03:08:00,VALID,919.356,VALID,0,VALID,100,VALID,0,VALID,18.2692,VALID,6,VALID,0.457422,
2005-09-19, 03:09:00,VALID,919.363,VALID,0,VALID,100,VALID,-0.0679233,VALID,18.2725,VALID,6,VALID,0.512173,
2005-09-19, 03:10:00,VALID,919.363,VALID,0,VALID,99.9878,VALID,-0.0509425,VALID,18.2074,VALID,7,VALID,0.841797,
2005-09-19, 03:11:00,VALID,919.345,VALID,0,VALID,100,VALID,-0.0679233,VALID,18.231,VALID,12,VALID,0.849254,
2005-09-19, 03:12:00,VALID,919.354,VALID,0,VALID,100,VALID,-0.0339617,VALID,18.2499,VALID,356,VALID,0.606445,
2005-09-19, 03:13:00,VALID,919.363,VALID,0,VALID,100,VALID,-0.0679233,VALID,18.24,VALID,9,VALID,0.761991,
2005-09-19, 03:14:00,VALID,919.357,VALID,0,VALID,99.869,VALID,-0.0509425,VALID,18.1984,VALID,13,VALID,0.437314,
2005-09-19, 03:15:00,VALID,919.361,VALID,0,VALID,99.9196,VALID,-0.0679233,VALID,18.1689,VALID,13,VALID,0.180831,
2005-09-19, 03:16:00,VALID,919.347,VALID,0,VALID,99.8782,VALID,0.0169808,VALID,18.1556,VALID,13,VALID,0.470022,
2005-09-19, 03:17:00,VALID,919.353,VALID,0,VALID,99.8538,VALID,0.0509425,VALID,18.1159,VALID,13,VALID,0.682292,
2005-09-19, 03:18:00,VALID,919.363,VALID,0,VALID,100,VALID,0.0509425,VALID,18.1261,VALID,14,VALID,0.531068,
2005-09-19, 03:19:00,VALID,919.372,VALID,0,VALID,99.9769,VALID,0.0509425,VALID,18.0737,VALID,23,VALID,0.558183,
2005-09-19, 03:20:00,VALID,919.37,VALID,0,VALID,99.9977,VALID,0.0339617,VALID,18.058,VALID,23,VALID,0.573331,
2005-09-19, 03:21:00,VALID,919.363,VALID,0,VALID,100,VALID,0.0339617,VALID,18.0617,VALID,23,VALID,0.429878,
2005-09-19, 03:22:00,VALID,919.347,VALID,0,VALID,100,VALID,0,VALID,18.0354,VALID,23,VALID,0.417333,
2005-09-19, 03:23:00,VALID,919.335,VALID,0,VALID,100,VALID,0.0509425,VALID,18.0451,VALID,21,VALID,0.532703,
2005-09-19, 03:24:00,VALID,919.31,VALID,0,VALID,100,VALID,0.0679233,VALID,18.0004,VALID,21,VALID,0.72247,
2005-09-19, 03:25:00,VALID,919.314,VALID,0,VALID,100,VALID,0.0339617,VALID,17.9773,VALID,20,VALID,0.755022,
2005-09-19, 03:26:00,VALID,919.294,VALID,0,VALID,100,VALID,0.0849042,VALID,17.9582,VALID,9,VALID,0.70191,
2005-09-19, 03:27:00,VALID,919.307,VALID,0,VALID,100,VALID,0.0509425,VALID,17.9642,VALID,15,VALID,0.73274,
2005-09-19, 03:28:00,VALID,919.31,VALID,0,VALID,100,VALID,0.0509425,VALID,17.987,VALID,23,VALID,0.871652,
2005-09-19, 03:29:00,VALID,919.316,VALID,0,VALID,100,VALID,0.0509425,VALID,18.0161,VALID,25,VALID,0.686384,
2005-09-19, 03:30:00,VALID,919.31,VALID,0,VALID,100,VALID,0.0509425,VALID,18.052,VALID,20,VALID,0.766387,
2005-09-19, 03:31:00,VALID,919.328,VALID,0,VALID,100,VALID,-0.0169808,VALID,18.1754,VALID,358,VALID,0.973028,
2005-09-19, 03:32:00,VALID,919.32,VALID,0,VALID,100,VALID,-0.0679233,VALID,18.2337,VALID,1,VALID,0.57066,
2005-09-19, 03:33:00,VALID,919.306,VALID,0,VALID,100,VALID,-0.0849042,VALID,18.2822,VALID,5,VALID,0.667151,
2005-09-19, 03:34:00,VALID,919.29,VALID,0,VALID,100,VALID,-0.0679233,VALID,18.2955,VALID,9,VALID,0.556323,
2005-09-19, 03:35:00,VALID,919.283,VALID,0,VALID,100,VALID,0,VALID,18.344,VALID,354,VALID,0.881747,
2005-09-19, 03:36:00,VALID,919.289,VALID,0,VALID,100,VALID,-0.0509425,VALID,18.3954,VALID,10,VALID,0.917081,
2005-09-19, 03:37:00,VALID,919.327,VALID,0,VALID,100,VALID,-0.0679233,VALID,18.4085,VALID,15,VALID,0.94668,
2005-09-19, 03:38:00,VALID,919.358,VALID,0,VALID,100,VALID,-0.0509425,VALID,18.4081,VALID,4,VALID,0.562855,
2005-09-19, 03:39:00,VALID,919.372,VALID,0,VALID,100,VALID,-0.0849042,VALID,18.4018,VALID,5,VALID,0.439499,